This is the latest recevied weather packets stored in our database for station/object SQ5VCO-13. If no packets are shown the sender has not sent any weather packets the latest 10 day(s).
| Time | Temp. | Humidity | Pressure | Rain* | Wind** | Luminosity | Snow |
|---|---|---|---|---|---|---|---|
| 1778155804 | 13.33° C | 77% | 1011.3 hPa | 0 mm | - | - | - |
| 1778151904 | 12.22° C | 77% | 1011.1 hPa | 0 mm | - | - | - |
| 1778149804 | 12.78° C | 74% | 1010.6 hPa | 0 mm | - | - | - |
| 1778149036 | 13.33° C | 72% | 1010.5 hPa | 0 mm | - | - | - |
| 1778147404 | 14.44° C | 70% | 1010.2 hPa | 0 mm | - | - | - |
| 1778146804 | 14.44° C | 70% | 1010.3 hPa | 0 mm | - | - | - |
| 1778146205 | 14.44° C | 70% | 1010.2 hPa | 0 mm | - | - | - |
| 1778145904 | 14.44° C | 69% | 1010.3 hPa | 0 mm | - | - | - |
| 1778145604 | 15° C | 69% | 1009.8 hPa | 0 mm | - | - | - |
| 1778145304 | 15° C | 68% | 1009.9 hPa | 0 mm | - | - | - |
| 1778143338 | 15.56° C | 67% | 1009.3 hPa | 0 mm | - | - | - |
| 1778141837 | 15° C | 70% | 1009.2 hPa | 0 mm | - | - | - |
| 1778141104 | 15.56° C | 71% | 1009.1 hPa | 0 mm | - | - | - |
| 1778140203 | 15° C | 72% | 1008.7 hPa | 0 mm | - | - | - |
| 1778139304 | 14.44° C | 73% | 1008.9 hPa | 0 mm | - | - | - |
| 1778137936 | 14.44° C | 75% | 1008.5 hPa | 0 mm | - | - | - |
| 1778132404 | 13.89° C | 85% | 1007.6 hPa | 0 mm | - | - | - |
| 1778129405 | 13.33° C | 87% | 1006.9 hPa | 0 mm | - | - | - |
| 1778129237 | 13.33° C | 87% | 1006.9 hPa | 0 mm | - | - | - |
| 1778127304 | 12.78° C | 85% | 1006.5 hPa | 0 mm | - | - | - |
| 1778125804 | 12.22° C | 87% | 1006.2 hPa | 0 mm | - | - | - |
| 1778124304 | 12.22° C | 86% | 1005.9 hPa | 0 mm | - | - | - |
| 1778123835 | 12.22° C | 82% | 1006.3 hPa | 0.25 mm | - | - | - |
| 1778122804 | 12.78° C | 81% | 1005.6 hPa | 0.25 mm | - | - | - |
| 1778122335 | 12.78° C | 81% | 1006.1 hPa | 0.25 mm | - | - | - |
* Rain latest hour (hover to see other rain measurements)
** Current wind speed in m/s (hover to see current wind gust speed)